This is the latest recevied weather packets stored in our database for station/object NA9VY-8. If no packets are shown the sender has not sent any weather packets the latest 10 day(s).
| Time | Temp. | Humidity | Pressure | Rain* | Wind** | Luminosity | Snow |
|---|---|---|---|---|---|---|---|
| 1777423425 | 17.22° C | 88% | 1015.7 hPa | 0 mm | - | 0 W/m² | - |
| 1777423125 | 17.22° C | 87% | 1016 hPa | 0 mm | - | 0 W/m² | - |
| 1777422820 | 17.78° C | 85% | 1016 hPa | 0 mm | - | 0 W/m² | - |
| 1777422516 | 17.78° C | 83% | 1015.9 hPa | 0 mm | - | 0 W/m² | - |
| 1777422212 | 17.78° C | 82% | 1015.8 hPa | 0 mm | - | 0 W/m² | - |
| 1777421911 | 17.78° C | 81% | 1015.6 hPa | 0 mm | - | 1 W/m² | - |
| 1777421607 | 18.33° C | 81% | 1015.9 hPa | 0 mm | - | 0 W/m² | - |
| 1777421302 | 18.33° C | 81% | 1016 hPa | 0 mm | - | 2 W/m² | - |
| 1777420999 | 18.33° C | 80% | 1015.8 hPa | 0 mm | - | 4 W/m² | - |
| 1777420695 | 18.89° C | 80% | 1015.8 hPa | 0 mm | - | 7 W/m² | - |
| 1777420392 | 18.89° C | 79% | 1015.9 hPa | 0 mm | - | 10 W/m² | - |
| 1777420087 | 18.89° C | 80% | 1016.1 hPa | 0 mm | - | 12 W/m² | - |
| 1777419784 | 18.89° C | 79% | 1016.1 hPa | 0 mm | - | 15 W/m² | - |
| 1777419481 | 18.89° C | 78% | 1016.2 hPa | 0 mm | - | 17 W/m² | - |
| 1777419180 | 19.44° C | 77% | 1016 hPa | 0 mm | - | 20 W/m² | - |
| 1777418876 | 19.44° C | 76% | 1015.9 hPa | 0 mm | - | 22 W/m² | - |
| 1777418572 | 19.44° C | 77% | 1016.2 hPa | 0 mm | - | 29 W/m² | - |
| 1777418269 | 20° C | 76% | 1016.4 hPa | 0 mm | - | 29 W/m² | - |
| 1777417964 | 20° C | 75% | 1016.4 hPa | 0 mm | - | 32 W/m² | - |
| 1777417660 | 20° C | 75% | 1016.3 hPa | 0 mm | - | 35 W/m² | - |
| 1777417356 | 20° C | 74% | 1016.3 hPa | 0 mm | - | 39 W/m² | - |
| 1777417053 | 20° C | 73% | 1016.2 hPa | 0 mm | - | 51 W/m² | - |
| 1777416748 | 20° C | 75% | 1016.1 hPa | 0 mm | - | 55 W/m² | - |
| 1777416444 | 20.56° C | 73% | 1016 hPa | 0 mm | - | 59 W/m² | - |
| 1777416140 | 20.56° C | 75% | 1015.9 hPa | 0 mm | - | 61 W/m² | - |
* Rain latest hour (hover to see other rain measurements)
** Current wind speed in m/s (hover to see current wind gust speed)